Weather History for KOMK - July, 2013

Change the Weather History Date:

Wednesday, July 31, 2013

  Actual Average Record
Temperature  
Mean Temperature 78 °F 75 °F  
Max Temperature 94 °F 91 °F 104 °F (2000)
Min Temperature 61 °F 59 °F 43 °F (1964)
Degree Days  
Heating Degree Days 0 0  
Month to date heating degree days 0 11  
Since 1 June heating degree days 67 84  
Since 1 July heating degree days 0 15  
Cooling Degree Days 13 10  
Month to date cooling degree days 348 254  
Year to date cooling degree days 436 361  
Since 1 June cooling degree days 413 338  
Growing Degree Days 28 (Base 50)    
Moisture  
Dew Point 42 °F    
Average Humidity 31    
Maximum Humidity 46    
Minimum Humidity 15    
Precipitation  
Precipitation T in 0.02 in 0.19 in (2010)
Month to date precipitation 0.26 0.81  
Year to date precipitation 6.10 8.56  
Sea Level Pressure  
Sea Level Pressure 30.01 in    
Wind  
Wind Speed 8 mph (NNW)    
Max Wind Speed 17 mph    
Max Gust Speed 23 mph    
Visibility 10 miles    
Events Rain    
T = Trace of Precipitation, MM = Missing Value Source: NWS Daily Summary

Daily Weather History Graph

Daily Weather History Graph

Search for Another Location

Airport or City:

Trip Planner

Search our weather history database for the weather conditions in past years. The results will help you decide how hot, cold, wet, or windy it might be!

Date:

Astronomy

Jul. 31, 2013 Rise Set
Actual Time 5:31 AM PDT 8:36 PM PDT
Civil Twilight 4:54 AM PDT 9:12 PM PDT
Nautical Twilight 4:06 AM PDT 10:00 PM PDT
Astronomical Twilight 3:06 AM PDT 10:59 PM PDT
Moon 12:30 AM PDT (7/31) 3:58 PM PDT (7/31)
Length of Visible Light 16h 18m
Length of Day
15h 04m
Waning Crescent, 31% of the Moon is Illuminated
Jul 31
Waning Crescent
Aug 6
New
Aug 14
First Quarter
Aug 20
Full
Aug 28
Last Quarter

Hourly Weather History & Observations

Time (PDT) Temp. Dew Point Humidity Pressure Visibility Wind Dir Wind Speed Gust Speed Precip Events Conditions
12:53 AM 64.0 °F 39.9 °F 41% 30.06 in 10.0 mi North 4.6 mph - N/A   Clear
1:53 AM 62.1 °F 41.0 °F 46% 30.06 in 10.0 mi NNW 5.8 mph - N/A   Clear
2:53 AM 66.9 °F 39.9 °F 37% 30.06 in 10.0 mi North 11.5 mph - N/A   Clear
3:53 AM 66.9 °F 39.0 °F 36% 30.06 in 10.0 mi North 12.7 mph - N/A   Clear
4:53 AM 64.9 °F 39.0 °F 39% 30.07 in 10.0 mi North 11.5 mph - N/A   Clear
5:53 AM 64.0 °F 39.0 °F 40% 30.08 in 10.0 mi North 12.7 mph - N/A   Clear
6:53 AM 66.0 °F 39.0 °F 37% 30.09 in 10.0 mi North 11.5 mph - N/A   Clear
7:53 AM 69.1 °F 41.0 °F 36% 30.10 in 10.0 mi North 10.4 mph - N/A   Clear
8:53 AM 75.0 °F 43.0 °F 32% 30.08 in 10.0 mi North 12.7 mph - N/A   Clear
9:53 AM 79.0 °F 43.0 °F 28% 30.07 in 10.0 mi North 16.1 mph 21.9 mph N/A   Clear
10:53 AM 84.0 °F 44.1 °F 25% 30.05 in 10.0 mi North 11.5 mph - N/A   Clear
11:53 AM 88.0 °F 44.1 °F 22% 30.02 in 10.0 mi North 11.5 mph 17.3 mph N/A   Clear
12:53 PM 91.9 °F 43.0 °F 18% 29.99 in 10.0 mi North 9.2 mph - N/A   Clear
1:53 PM 93.0 °F 41.0 °F 16% 29.97 in 10.0 mi NNW 5.8 mph - N/A   Clear
2:53 PM 93.0 °F 39.9 °F 16% 29.95 in 10.0 mi Calm Calm - N/A   Clear
3:53 PM 91.9 °F 39.9 °F 16% 29.94 in 10.0 mi Variable 4.6 mph - N/A   Clear
4:53 PM 91.0 °F 41.0 °F 17% 29.92 in 10.0 mi SW 3.5 mph - N/A   Clear
5:53 PM 89.1 °F 39.9 °F 18% 29.91 in 10.0 mi SE 3.5 mph - N/A   Partly Cloudy
6:53 PM 86.0 °F 39.9 °F 20% 29.93 in 10.0 mi SE 9.2 mph - N/A   Mostly Cloudy
7:53 PM 82.9 °F 42.1 °F 24% 29.94 in 10.0 mi WNW 9.2 mph - 0.00 in   Overcast
8:53 PM 80.1 °F 44.1 °F 28% 29.99 in 10.0 mi NNW 3.5 mph - 0.00 in Rain Light Rain
9:53 PM 75.0 °F 46.9 °F 37% 29.97 in 10.0 mi NNW 3.5 mph - 0.00 in   Clear
10:53 PM 73.9 °F 48.9 °F 41% 29.96 in 10.0 mi NW 3.5 mph - 0.00 in Rain Light Rain
11:53 PM 72.0 °F 48.9 °F 44% 29.93 in 10.0 mi NW 8.1 mph - 0.00 in   Scattered Clouds